Szolnok, Hungary

10:59 PM CEST on July 26, 2016 (GMT +0200)
Szolnok

Weather History for LHSN - September, 2012

Change the Weather History Date:

Monday, September 24, 2012

  Actual Average (LHBP) Record (LHBP)
Temperature  
Mean Temperature 68 °F -  
Max Temperature 82 °F 66 °F 80 °F (2012)
Min Temperature 53 °F 47 °F 35 °F (2014)
Cooling Degree Days 2    
Growing Degree Days 18 (Base 50)    
Moisture  
Dew Point 53 °F    
Average Humidity 63    
Maximum Humidity 82    
Minimum Humidity 37    
Precipitation  
Precipitation 0.00 in - - ()
Sea Level Pressure  
Sea Level Pressure 29.78 in    
Wind  
Wind Speed 5 mph ()    
Max Wind Speed 16 mph    
Max Gust Speed -    
Visibility 5.0 miles    
Events Rain    
Averages and records for this station are not official NWS values.
T = Trace of Precipitation, MM = Missing Value Source: Averaged Metar Reports

Daily Weather History Graph

Daily Weather History Graph

Search for Another Location

Airport or City:

Trip Planner

Search our weather history database for the weather conditions in past years. The results will help you decide how hot, cold, wet, or windy it might be!

Date:

Astronomy

Sep. 24, 2012 Rise Set
Actual Time 6:28 AM CEST 6:32 PM CEST
Civil Twilight 5:58 AM CEST 7:02 PM CEST
Nautical Twilight 5:22 AM CEST 7:38 PM CEST
Astronomical Twilight 4:45 AM CEST 8:14 PM CEST
Moon 3:23 PM CEST (9/24) 12:04 AM CEST (9/24)
Length of Visible Light 13h 04m
Length of Day
12h 03m
Waxing Gibbous, 68% of the Moon is Illuminated
Sep 24
Waxing Gibbous
Sep 30
Full
Oct 8
Last Quarter
Oct 15
New
Oct 22
First Quarter

Hourly Weather History & Observations

Time (CEST) Temp. Heat Index Dew Point Humidity Pressure Visibility Wind Dir Wind Speed Gust Speed Precip Events Conditions
12:15 AM 55.4 °F - 46.4 °F 72% 29.98 in - SE 2.2 mph - N/A   Clear
1:15 AM 53.6 °F - 46.4 °F 77% 29.98 in - East 2.2 mph - N/A   Clear
1:45 AM 53.6 °F - 46.4 °F 77% 29.95 in - East 2.2 mph - N/A   Clear
2:15 AM 53.6 °F - 46.4 °F 77% 29.95 in - ESE 2.2 mph - N/A   Clear
2:45 AM 55.4 °F - 46.4 °F 72% 29.95 in - Variable 2.2 mph - N/A   Clear
3:15 AM 55.4 °F - 46.4 °F 72% 29.92 in - ESE 4.5 mph - N/A   Clear
3:45 AM - - - N/A% - - Variable 4.5 mph - N/A   Clear
4:15 AM 55.4 °F - 48.2 °F 77% 29.92 in - ESE 2.2 mph - N/A   Clear
4:45 AM 55.4 °F - 48.2 °F 77% 29.92 in - ESE 4.5 mph - N/A   Clear
5:15 AM 53.6 °F - 48.2 °F 82% 29.89 in - SE 4.5 mph - N/A   Clear
5:45 AM 53.6 °F - 48.2 °F 82% 29.89 in - ESE 4.5 mph - N/A   Clear
6:15 AM 55.4 °F - 50.0 °F 82% 29.89 in - East 2.2 mph - N/A   Clear
6:45 AM - - - N/A% - - East 4.5 mph - N/A   Clear
7:15 AM 55.4 °F - 50.0 °F 82% 29.89 in - East 4.5 mph - N/A   Clear
8:15 AM 57.2 °F - 51.8 °F 82% 29.86 in - East 6.7 mph - N/A   Clear
8:45 AM 59.0 °F - 53.6 °F 82% 29.86 in - East 4.5 mph - N/A   Clear
9:15 AM 60.8 °F - 53.6 °F 77% 29.86 in - ESE 4.5 mph - N/A   Clear
9:45 AM - - - N/A% - - SE 4.5 mph - N/A   Clear
10:15 AM 64.4 °F - 55.4 °F 73% 29.86 in - SE 6.7 mph - N/A   Clear
10:45 AM 66.2 °F - 55.4 °F 68% 29.83 in - SE 6.7 mph - N/A   Clear
11:15 AM 69.8 °F - 55.4 °F 60% 29.83 in - SE 6.7 mph - N/A   Clear
11:45 AM 71.6 °F - 55.4 °F 57% 29.80 in - SE 6.7 mph - N/A   Clear
12:15 PM 77.0 °F - 55.4 °F 47% 29.80 in - South 11.2 mph - N/A   Clear
12:45 PM - - - N/A% - - South 13.4 mph - N/A   Clear
1:15 PM 78.8 °F - 53.6 °F 42% 29.77 in - South 15.7 mph - N/A   Clear
1:45 PM 78.8 °F - 51.8 °F 39% 29.74 in - South 13.4 mph - N/A   Clear
2:15 PM 78.8 °F - 51.8 °F 39% 29.74 in - South 15.7 mph - N/A   Clear
2:45 PM 82.4 °F 81.4 °F 53.6 °F 37% 29.74 in - South 13.4 mph - N/A   Clear
3:15 PM 80.6 °F 80.3 °F 53.6 °F 39% 29.71 in - South 13.4 mph - N/A   Clear
3:45 PM - - - N/A% - - South 13.4 mph - N/A   Clear
4:15 PM 80.6 °F 80.3 °F 53.6 °F 39% 29.68 in - South 11.2 mph - N/A   Clear
4:45 PM 78.8 °F - 55.4 °F 44% 29.68 in - South 11.2 mph - N/A   Clear
5:15 PM 80.6 °F 80.5 °F 55.4 °F 42% 29.68 in - South 6.7 mph - N/A   Clear
5:45 PM 78.8 °F - 55.4 °F 44% 29.65 in - South 6.7 mph - N/A   Clear
6:15 PM 77.0 °F - 55.4 °F 47% 29.65 in - South 6.7 mph - N/A   Clear
6:45 PM 73.4 °F - 55.4 °F 53% 29.65 in - South 6.7 mph - N/A   Clear
7:15 PM 71.6 °F - 55.4 °F 57% 29.65 in - South 6.7 mph - N/A   Clear
7:45 PM 73.4 °F - 55.4 °F 53% 29.65 in - South 6.7 mph - N/A   Clear
8:15 PM 71.6 °F - 55.4 °F 57% 29.65 in - South 2.2 mph - N/A   Clear
8:45 PM 68.0 °F - 55.4 °F 64% 29.65 in - South 4.5 mph - N/A   Clear
9:15 PM 68.0 °F - 55.4 °F 64% 29.65 in - SSE 4.5 mph - N/A   Clear
9:45 PM - - - N/A% - 5.0 mi SSW 8.9 mph - N/A Rain Rain
10:15 PM 66.2 °F - 55.4 °F 68% 29.65 in - South 6.7 mph - N/A   Clear
10:45 PM 68.0 °F - 55.4 °F 64% 29.62 in - South 6.7 mph - N/A   Clear
11:15 PM 66.2 °F - 55.4 °F 68% 29.62 in - South 4.5 mph - N/A   Clear
11:45 PM 66.2 °F - 55.4 °F 68% 29.62 in - South 6.7 mph - N/A   Clear